Danville, VA

4:02 PM EDT on March 23, 2017 (GMT -0400)
Danville Regional

Weather History for KDAN - November, 2012

Change the Weather History Date:

Thursday, November 1, 2012

  Actual Average Record
Temperature  
Mean Temperature 45 °F 54 °F  
Max Temperature 57 °F 66 °F 87 °F (1950)
Min Temperature 32 °F 43 °F 27 °F (1954)
Degree Days  
Heating Degree Days 20 11  
Month to date heating degree days 20 11  
Since 1 July heating degree days 262 244  
Cooling Degree Days 0 0  
Month to date cooling degree days 0 0  
Year to date cooling degree days 1594 1436  
Moisture  
Dew Point 33 °F    
Average Humidity 66    
Maximum Humidity 89    
Minimum Humidity 43    
Precipitation  
Precipitation 0.00 in 0.12 in 1.79 in (2009)
Month to date precipitation 0.00 0.12  
Year to date precipitation 25.89 37.90  
Snow  
Snow 0.00 in - - ()
Month to date snowfall 0.0  
Since 1 July snowfall 0.0  
Since 1 September snowfall 0.0  
Snow Depth 0.00 in    
Sea Level Pressure  
Sea Level Pressure 29.77 in    
Wind  
Wind Speed 7 mph (West)    
Max Wind Speed 18 mph    
Max Gust Speed 25 mph    
Visibility 10 miles    
Events      
T = Trace of Precipitation, MM = Missing Value Source: NWS Daily Summary

Daily Weather History Graph

Daily Weather History Graph

Search for Another Location

Airport or City:

Trip Planner

Search our weather history database for the weather conditions in past years. The results will help you decide how hot, cold, wet, or windy it might be!

Date:

Astronomy

Nov. 01, 2012 Rise Set
Actual Time 7:41 AM EDT 6:20 PM EDT
Civil Twilight 7:14 AM EDT 6:46 PM EDT
Nautical Twilight 6:43 AM EDT 7:17 PM EDT
Astronomical Twilight 6:13 AM EDT 7:47 PM EDT
Moon 8:19 PM EDT (11/1) 10:08 AM EDT (11/1)
Length of Visible Light 11h 32m
Length of Day
10h 38m
Waning Gibbous, 93% of the Moon is Illuminated
Nov 1
Waning Gibbous
Nov 6
Last Quarter
Nov 13
New
Nov 20
First Quarter
Nov 28
Full

Hourly Weather History & Observations

Time (EDT) Temp. Windchill Dew Point Humidity Pressure Visibility Wind Dir Wind Speed Gust Speed Precip Events Conditions
12:53 AM 44.1 °F 41.5 °F 33.1 °F 65% 29.74 in 10.0 mi SW 4.6 mph - N/A   Mostly Cloudy
1:53 AM 42.1 °F 38.4 °F 33.1 °F 70% 29.74 in 10.0 mi SW 5.8 mph - N/A   Overcast
2:53 AM 39.0 °F 35.7 °F 32.0 °F 76% 29.74 in 10.0 mi WSW 4.6 mph - N/A   Scattered Clouds
4:53 AM 39.9 °F 36.7 °F 33.1 °F 77% 29.74 in 10.0 mi West 4.6 mph - N/A   Mostly Cloudy
5:53 AM 44.1 °F 41.5 °F 34.0 °F 68% 29.74 in 10.0 mi West 4.6 mph - N/A   Overcast
6:53 AM 45.0 °F 41.2 °F 34.0 °F 65% 29.74 in 10.0 mi West 6.9 mph - N/A   Overcast
7:53 AM 46.0 °F 42.5 °F 33.1 °F 61% 29.75 in 10.0 mi West 6.9 mph - N/A   Overcast
8:53 AM 46.9 °F - 34.0 °F 61% 29.77 in 10.0 mi WSW 8.1 mph - N/A   Overcast
9:53 AM 48.9 °F - 34.0 °F 56% 29.78 in 10.0 mi West 8.1 mph - N/A   Overcast
11:53 AM 53.1 °F - 32.0 °F 45% 29.79 in 10.0 mi WNW 11.5 mph 19.6 mph N/A   Overcast
12:53 PM 55.0 °F - 33.1 °F 43% 29.78 in 10.0 mi WNW 11.5 mph - N/A   Overcast
1:53 PM 54.0 °F - 33.1 °F 45% 29.75 in 10.0 mi WNW 12.7 mph - N/A   Overcast
2:53 PM 55.0 °F - 33.1 °F 43% 29.74 in 10.0 mi WNW 13.8 mph 21.9 mph N/A   Overcast
3:53 PM 55.0 °F - 33.1 °F 43% 29.75 in 10.0 mi NW 12.7 mph 20.7 mph N/A   Mostly Cloudy
4:53 PM 53.1 °F - 34.0 °F 48% 29.76 in 10.0 mi WNW 8.1 mph 18.4 mph N/A   Scattered Clouds
5:53 PM 53.1 °F - 33.1 °F 47% 29.77 in 10.0 mi WNW 8.1 mph - N/A   Clear
6:53 PM 50.0 °F - 33.1 °F 52% 29.80 in 10.0 mi WNW 5.8 mph - N/A   Clear
7:53 PM 48.0 °F - 32.0 °F 54% 29.81 in 10.0 mi Calm Calm - N/A   Clear
8:53 PM 37.9 °F 35.5 °F 32.0 °F 79% 29.81 in 10.0 mi SW 3.5 mph - N/A   Clear
9:53 PM 36.0 °F 33.3 °F 30.9 °F 82% 29.83 in 10.0 mi SW 3.5 mph - N/A   Clear
10:53 PM 35.1 °F - 30.9 °F 85% 29.83 in 10.0 mi Calm Calm - N/A   Clear
11:53 PM 34.0 °F 31.0 °F 30.9 °F 89% 29.84 in 10.0 mi SW 3.5 mph - N/A   Clear